Сарыозек

Казахстан     44°21′10″N   77°58′01″E
темп.,
°C
ветер,
м/с
пор.,
м/с
влажн.,
%
обл.,
%
осадки,
мм/ч
давл.,
гПа
погр.,
м
2 марта, вт
вт200:00+2ююв343783 0.0 102124
03:00+2ююв33367 0.0 102022
06:00+2ююв233520 0.0 102122
09:00+3ююв4444100 0.0 102041
12:00+6ююв4655100 0.0 1018110
15:00+7зюз4750100 0.0 1018373
18:00+2зюз2359100 0.0 102027
21:00+1ююз335992 0.0 102326
3 марта, ср
ср300:00+1з337496 0.0 102442
03:000ю2398100 1.3 1024170
06:00−1ююз2298100 2.5 1024133
09:00−1юз2296100 0.8 1025171
12:000ссз2298100 1.6 1025253
15:00−1ссв4594100 0.6 1025420
18:00−2св2394100 1.0 1025212
21:00−3св129399 0.0 102642
4 марта, чт
чт400:00−2ссв1190100 0.0 102523
03:00−2св1188100 0.0 102433
06:00−2св1188100 0.0 102431
09:00−1юз1289100 0.0 1023167
12:00+2ю2384100 0.1 1023350
15:00+4юз347597 0.0 1021645
18:00+2ююв238094 0.0 102125
21:00+1юв337660 0.0 102130
5 марта, пт
пт500:00+2юв8116935 0.0 1018169
03:00+3юв111858100 0.0 1015249
06:00+1зсз5967100 0.0 1021242
09:00−1з91397100 2.8 1030845
12:00−2зсз7988100 4.1 1035772
15:00−1зсз346971 0.1 1034918
18:00−1всв237250 0.1 103388
21:00−3вюв23620 0.0 103239
6 марта, сб
сб600:00−2вюв23470 0.0 103132
03:00−3вюв34600 0.0 102888
06:00−3вюв34640 0.0 102687
09:00−1вюв46580 0.0 1024174
12:00+3юв35470 0.0 1020302
15:00+5вюв23423 0.0 1016410
18:00+2вюв225718 0.0 101539
21:00−1всв015792 0.0 101624